Retour au catalogue

COSMOS 2168

ActifNavigationPO
NORAD 21782·PAYLOAD·🇷🇺 Russia

Lancé Nov 12, 1991 depuis Plesetsk Cosmodrome

Loading…

Prochains Passages (prochaines 24 heures)

TLE

FraisSource: Space-Track

Époque: Sep 14, 2026, 11:58 UTC

1 21782U 91077D   26257.49928168  .00000035  00000-0  13070-3 0  9995
2 21782  82.6001 155.7182 0013236 176.5172 358.0742 12.65533349609096

Suivez COSMOS 2168 en temps réel avec AllMySat

Download on the App Store